TimeEST,TemperatureF,Dew PointF,Humidity,Sea Level PressureIn,VisibilityMPH,Wind Direction,Wind SpeedMPH,Gust SpeedMPH,PrecipitationIn,Events,Conditions,WindDirDegrees,DateUTC
12:15 AM,51.1,49.1,93,30.09,5.0,NNW,6.9,-,N/A,,Mostly Cloudy,340,2012-11-23 05:15:00
12:35 AM,50.9,49.1,94,30.09,5.0,NNW,5.8,-,N/A,,Overcast,330,2012-11-23 05:35:00
12:55 AM,50.9,49.1,94,30.09,5.0,NNW,5.8,-,N/A,,Overcast,340,2012-11-23 05:55:00
1:15 AM,50.9,49.1,94,30.08,5.0,NNW,8.1,-,N/A,,Overcast,340,2012-11-23 06:15:00
1:35 AM,51.1,49.1,93,30.08,5.0,NNW,6.9,-,N/A,,Overcast,340,2012-11-23 06:35:00
1:55 AM,51.1,49.1,93,30.08,5.0,NNW,5.8,-,N/A,,Overcast,330,2012-11-23 06:55:00
2:15 AM,50.9,49.1,94,30.08,5.0,NNW,6.9,-,N/A,,Overcast,340,2012-11-23 07:15:00
2:35 AM,51.1,49.1,93,30.07,5.0,NNW,5.8,-,N/A,,Overcast,330,2012-11-23 07:35:00
2:55 AM,50.7,48.9,94,30.07,5.0,NNW,5.8,-,N/A,,Scattered Clouds,340,2012-11-23 07:55:00
3:15 AM,50.2,48.4,94,30.06,4.0,NNW,5.8,-,N/A,,Clear,340,2012-11-23 08:15:00
3:35 AM,50.0,48.4,94,30.07,4.0,NNW,5.8,-,N/A,,Clear,330,2012-11-23 08:35:00
3:55 AM,50.0,48.4,94,30.07,4.0,NNW,6.9,-,N/A,,Scattered Clouds,340,2012-11-23 08:55:00
4:15 AM,49.6,48.2,95,30.06,4.0,NNW,5.8,-,N/A,,Scattered Clouds,340,2012-11-23 09:15:00
4:35 AM,49.3,48.0,95,30.06,4.0,NNW,4.6,-,N/A,,Clear,340,2012-11-23 09:35:00
4:55 AM,49.1,48.0,96,30.06,3.0,NNW,4.6,-,N/A,,Mostly Cloudy,340,2012-11-23 09:55:00
5:15 AM,49.1,48.0,96,30.06,1.0,NNW,4.6,-,N/A,,Overcast,340,2012-11-23 10:15:00
5:35 AM,48.7,47.7,96,30.07,0.8,NNW,5.8,-,N/A,,Overcast,330,2012-11-23 10:35:00
5:55 AM,48.6,47.7,97,30.07,1.5,WNW,3.5,-,N/A,,Overcast,300,2012-11-23 10:55:00
6:15 AM,48.4,47.5,97,30.07,2.0,Calm,Calm,-,N/A,,Overcast,0,2012-11-23 11:15:00
6:35 AM,47.8,46.9,97,30.07,2.5,Calm,Calm,-,N/A,,Overcast,0,2012-11-23 11:35:00
6:55 AM,47.5,46.6,97,30.08,2.5,Calm,Calm,-,N/A,,Overcast,0,2012-11-23 11:55:00
7:15 AM,47.1,46.2,97,30.09,1.2,Calm,Calm,-,N/A,,Overcast,0,2012-11-23 12:15:00
7:35 AM,46.8,45.9,97,30.09,2.0,Calm,Calm,-,N/A,,Overcast,0,2012-11-23 12:35:00
7:55 AM,46.9,46.0,97,30.09,4.0,Calm,Calm,-,N/A,,Mostly Cloudy,0,2012-11-23 12:55:00
8:15 AM,47.3,46.4,97,30.09,2.0,Calm,Calm,-,N/A,,Overcast,0,2012-11-23 13:15:00
8:35 AM,46.8,45.9,97,30.09,5.0,Calm,Calm,-,N/A,,Mostly Cloudy,0,2012-11-23 13:35:00
8:55 AM,47.1,46.2,97,30.08,5.0,Calm,Calm,-,N/A,,Mostly Cloudy,0,2012-11-23 13:55:00
9:15 AM,47.1,46.0,96,30.08,5.0,Calm,Calm,-,N/A,,Mostly Cloudy,0,2012-11-23 14:15:00
9:35 AM,47.8,46.6,95,30.08,10.0,West,3.5,-,N/A,,Scattered Clouds,270,2012-11-23 14:35:00
9:55 AM,48.9,46.8,92,30.07,10.0,Calm,Calm,-,N/A,,Scattered Clouds,0,2012-11-23 14:55:00
10:15 AM,49.5,46.8,90,30.06,10.0,West,3.5,-,N/A,,Scattered Clouds,270,2012-11-23 15:15:00
10:35 AM,49.8,46.6,89,30.05,10.0,Calm,Calm,-,N/A,,Clear,0,2012-11-23 15:35:00
10:55 AM,50.7,46.8,86,30.04,10.0,West,3.5,-,N/A,,Clear,270,2012-11-23 15:55:00
11:15 AM,50.7,46.4,85,30.03,10.0,WNW,5.8,-,N/A,,Clear,290,2012-11-23 16:15:00
11:35 AM,50.5,46.2,85,30.02,10.0,West,5.8,-,N/A,,Clear,280,2012-11-23 16:35:00
11:55 AM,50.5,46.2,85,30.01,10.0,WNW,3.5,-,N/A,,Clear,290,2012-11-23 16:55:00
12:15 PM,50.7,46.0,84,30.00,10.0,West,6.9,-,N/A,,Clear,280,2012-11-23 17:15:00
12:35 PM,52.0,46.6,82,29.99,10.0,WNW,5.8,-,N/A,,Clear,290,2012-11-23 17:35:00
12:55 PM,54.0,45.9,74,29.97,10.0,West,4.6,-,N/A,,Clear,270,2012-11-23 17:55:00
1:15 PM,55.2,45.1,69,29.96,10.0,West,4.6,-,N/A,,Clear,280,2012-11-23 18:15:00
1:35 PM,55.8,44.2,65,29.94,10.0,Calm,Calm,-,N/A,,Clear,0,2012-11-23 18:35:00
1:55 PM,57.4,45.0,63,29.94,10.0,WSW,4.6,-,N/A,,Clear,250,2012-11-23 18:55:00
2:15 PM,57.4,44.8,63,29.94,10.0,NW,5.8,-,N/A,,Clear,310,2012-11-23 19:15:00
2:35 PM,55.8,44.2,65,29.93,10.0,WNW,3.5,-,N/A,,Clear,300,2012-11-23 19:35:00
2:55 PM,56.1,45.0,66,29.91,10.0,Calm,Calm,-,N/A,,Clear,0,2012-11-23 19:55:00
3:15 PM,57.6,45.7,65,29.90,10.0,Calm,Calm,-,N/A,,Clear,0,2012-11-23 20:15:00
3:35 PM,58.5,46.2,64,29.90,10.0,SSW,3.5,-,N/A,,Clear,200,2012-11-23 20:35:00
3:55 PM,56.8,45.7,66,29.89,10.0,Calm,Calm,-,N/A,,Clear,0,2012-11-23 20:55:00
4:15 PM,55.2,46.4,72,29.89,10.0,South,3.5,-,N/A,,Clear,170,2012-11-23 21:15:00
4:35 PM,54.0,47.8,80,29.88,10.0,SSE,4.6,-,N/A,,Clear,150,2012-11-23 21:35:00
4:55 PM,52.9,47.7,82,29.88,10.0,Calm,Calm,-,N/A,,Clear,0,2012-11-23 21:55:00
5:15 PM,52.3,48.2,86,29.88,10.0,South,3.5,-,N/A,,Clear,180,2012-11-23 22:15:00
5:35 PM,52.2,48.9,89,29.88,10.0,South,4.6,-,N/A,,Clear,180,2012-11-23 22:35:00
5:55 PM,52.9,49.1,87,29.87,10.0,SSW,4.6,-,N/A,,Clear,200,2012-11-23 22:55:00
6:15 PM,53.2,47.1,80,29.87,10.0,SSW,5.8,-,N/A,,Clear,210,2012-11-23 23:15:00
6:35 PM,53.2,45.9,76,29.88,10.0,SW,5.8,-,N/A,,Clear,220,2012-11-23 23:35:00
6:55 PM,53.1,45.7,76,29.87,10.0,SSW,5.8,-,N/A,,Clear,210,2012-11-23 23:55:00
7:15 PM,52.7,45.0,75,29.86,10.0,SW,6.9,-,N/A,,Clear,220,2012-11-24 00:15:00
7:35 PM,52.3,44.2,74,29.86,10.0,SW,6.9,-,N/A,,Clear,220,2012-11-24 00:35:00
7:55 PM,52.0,43.5,73,29.86,10.0,SW,6.9,-,N/A,,Clear,220,2012-11-24 00:55:00
8:15 PM,52.0,44.1,74,29.86,10.0,SW,6.9,-,N/A,,Clear,220,2012-11-24 01:15:00
8:35 PM,52.0,44.6,76,29.86,10.0,SW,5.8,-,N/A,,Clear,220,2012-11-24 01:35:00
8:55 PM,51.6,44.4,76,29.86,10.0,SW,8.1,-,N/A,,Clear,220,2012-11-24 01:55:00
9:15 PM,51.8,44.6,76,29.86,10.0,SW,6.9,-,N/A,,Clear,230,2012-11-24 02:15:00
9:35 PM,51.6,44.6,77,29.85,10.0,SW,4.6,-,N/A,,Clear,220,2012-11-24 02:35:00
9:55 PM,51.4,44.4,77,29.84,10.0,SW,6.9,-,N/A,,Clear,230,2012-11-24 02:55:00
10:15 PM,52.3,43.0,70,29.83,10.0,WSW,9.2,-,N/A,,Clear,240,2012-11-24 03:15:00
10:35 PM,52.9,42.1,67,29.83,10.0,SW,6.9,-,N/A,,Clear,230,2012-11-24 03:35:00
10:55 PM,52.9,42.1,67,29.82,10.0,SW,8.1,-,N/A,,Clear,230,2012-11-24 03:55:00
11:15 PM,53.1,42.3,67,29.81,10.0,SW,10.4,-,N/A,,Clear,230,2012-11-24 04:15:00
11:35 PM,53.1,42.3,67,29.81,10.0,SW,9.2,-,N/A,,Clear,230,2012-11-24 04:35:00
11:55 PM,52.9,42.1,67,29.80,10.0,WSW,9.2,-,N/A,,Clear,240,2012-11-24 04:55:00